COSMOS 1275 DEB, 42102

Orbit data source: Space-Track

COSMOS 1275 DEB, 42102 is space debris in LEO originally from a launch on Thu, 04 Jun 1981 UTC launched from the Plesetsk Missile And Space Complex (PKMTR). Debris objects in space refer to the collection of defunct objects orbiting the Earth. Examples of debris include non-operational satellites, rocket bodies, and fragments generated from explosions, collisions, or faulty payload assembly.

Loading next visibility...
Identifier
42102, 1981-053PN
Orbit
LEO
Country
Flag of CISCIS
Related business
Manufacturer
Unknown
Mission
Spacecraft
Bus & Motor
Unknown
Mass
Unknown
Launch date (UTC)
1981-06-04 (44 years ago)
Launch vehicle
Unknown
Launch site
Plesetsk Missile And Space Complex (PKMTR)
Object type
Payload
Rocket body
Debris
Shape & HBR
Unknown shape, 0.1 m
Radar Cross Section
Small (<0.1 m²)

Expand to show TLE details & history
Last TLE update: 3 days ago

TLE from 3 days ago
0 COSMOS 1275 DEB
1 42102U 81053PN  25302.07457408  .00001536  00000-0  12393-2 0  9998
2 42102  83.0125 226.5067 0070244 203.5375 156.2571 13.88633428602517
Epoch: 2025-10-29T01:47Z
TLE epoch observation values (Epoch: 2025-10-29T01:47:23.200Z)
Latitude
0.00002°
Longitude
162.00711°
Altitude
983.424 km
Speed
7.336 km/s
True Right ascension
15h 06m 01s
True Declination
0° 00' 00"
Sunlit
Object was in daylight at epoch
Visualization orbit readout
Latitude
Unknown
Longitude
Unknown
Altitude
Unknown
Speed
Unknown
Apparent Right ascension
Unknown
Apparent Declination
Unknown
Sunlit
N/A
Visualization observer readout
Local Sidereal Time
01:32:54
Azimuth
Unknown
Elevation
Unknown
Doppler factor
Unknown
Orbital elements
Apogee altitude
981.89 km
Perigee altitude
879.212 km
Semi-major axis
7,308.688 km
Eccentricity
0.00702
Inclination
83.0125°
RAAN
226.5067°
Arg. of periapsis
203.5375°
True anomaly
156.57861°
Mean anomaly
156.2571°
Eccentric anomaly
156.41811°
Mean motion
3.47363 °/min
Orbital period
103.64 mins
BSTAR
0.0012393
Loading maneuver chart data...
Computing Atmospheric mass density...
Loading historical data...
Loading historical data...
Loading historical data...
Loading historical data...
Loading historical data...
Loading historical data...
Loading historical data...

Documentation

Showing up to 5 results
|